Regional Weather Roundup
Issued by NWS

Home | Current Version | Previous Version | Graphics & Text | Print | Product List | Glossary On
Versions: 1 2 3 4 5 6 7 8 9 10 11 12 13 14 15 16 17 18 19 20 21 22 23 24 25 26 27 28 29 30 31 32 33 34 35 36 37 38 39 40 41 42 43 44 45 46 47 48 49 50
022
ASUS43 KMKX 270400
RWRWI

WISCONSIN REGIONAL WEATHER ROUNDUP
NATIONAL WEATHER SERVICE MILWAUKEE/SULLIVAN WI
1100 PM CDT THU MAY 26 2016

NOTE: "FAIR" INDICATES FEW OR NO CLOUDS BELOW 12,000 FEET WITH NO
SIGNIFICANT WEATHER AND/OR OBSTRUCTIONS TO VISIBILITY.

WIZ001-002-006>008-014>016-023>028-270500-
NORTHWEST WISCONSIN

CITY           SKY/WX    TMP DP  RH WIND       PRES   REMARKS
SUPERIOR ARPT  FOG       46  46 100 CALM      29.84S VSB 1/2
ASHLAND        FOG       51  51 100 CALM      29.84S VSB 1/4
HAYWARD        CLOUDY    58  53  84 CALM      29.83F
SIREN          CLOUDY    61  53  75 CALM      29.83F
CUMBERLAND     CLOUDY    64  52  63 CALM      29.84F
RICE LAKE      CLOUDY    64  58  82 CALM      29.85F
CHETEK         CLOUDY    62  56  78 E3        29.84F
LADYSMITH      CLOUDY    64  56  76 CALM      29.87S
EAU CLAIRE     NOT AVBL
MENOMONIE      CLOUDY    67  54  61 E5        29.84S
NEW RICHMOND   CLOUDY    65  53  65 CALM      29.83F
OSCEOLA        CLOUDY    63  58  82 CALM      29.85F
$$

WIZ003>005-009-010-017-018-270500-
NORTH CENTRAL WISCONSIN

CITY           SKY/WX    TMP DP  RH WIND       PRES   REMARKS
MANITOWISH WTR NOT AVBL
ARBOR VITAE    CLOUDY    60  57  91 CALM      29.87S
WOODRUFF       CLOUDY    60  57  91 CALM      29.87S
RHINELANDER    MOCLDY    61  56  83 CALM      29.88F
EAGLE RIVER      N/A     60  59  98 CALM      29.87F
LAND O LAKES   PTCLDY    60  59  99 CALM      29.88F
PHILLIPS       CLOUDY    61  58  90 CALM      29.86S
TOMAHAWK       PTCLDY    59  57  92 CALM      29.89R
MEDFORD        PTCLDY    66  56  70 SW5       29.87S
MERRILL        PTCLDY    61  61 100 CALM      29.88S
$$

WIZ029-030-035-036-043>047-270500-
CENTRAL WISCONSIN

CITY           SKY/WX    TMP DP  RH WIND       PRES   REMARKS
WAUSAU         CLEAR     65  60  84 SE3       29.86S
MOSINEE        CLOUDY    61  61 100 SE3       29.89S
MARSHFIELD     CLOUDY    64  57  78 CALM      29.86F
STEVENS POINT  PTCLDY    59  57  94 CALM      29.89S
WAUPACA        PTCLDY    65  64  97 CALM      29.88S
WAUTOMA        CLOUDY    63  61  93 CALM      29.86F
WISC RAPIDS    MOCLDY    62  58  86 E3        29.87F
CAMP DOUGLAS   NOT AVBL
$$

WIZ011>013-019>022-031-037>040-048>050-270500-
NORTHEAST WISCONSIN

CITY           SKY/WX    TMP DP  RH WIND       PRES   REMARKS
ANTIGO         CLEAR     58  56  92 CALM      29.90S
SHAWANO        CLEAR     63  58  84 CALM      29.88S
OCONTO           N/A    N/A N/A N/A CALM      29.87F VSB 3/4
STURGEON BAY   NOT AVBL
GREEN BAY      CLEAR     63  60  90 CALM      29.87F
MANITOWOC      NOT AVBL
APPLETON       MOCLDY    66  54  63 CALM      29.87S
CLINTONVILLE   CLEAR     61  59  94 CALM      29.87S
OSHKOSH        CLOUDY    63  58  83 CALM      29.87S
$$

WIZ032>034-041-042-053>061-270500-
SOUTHWEST WISCONSIN

CITY           SKY/WX    TMP DP  RH WIND       PRES   REMARKS
LA CROSSE      CLOUDY    68  61  78 E3        29.84S
SPARTA         CLOUDY    64  60  89 CALM      29.86F
VIROQUA        CLOUDY    68  61  77 CALM      29.87F
BOSCOBEL       MOCLDY    66  63  90 CALM      29.86F
PRAIRIE DU CHI CLOUDY    68  61  79 CALM      29.84F
PLATTEVILLE    MOCLDY    70  57  64 E3        29.88F
$$

WIZ056-057-062-063-064-067-068-270500-
SOUTH CENTRAL WISCONSIN

CITY           SKY/WX    TMP DP  RH WIND       PRES   REMARKS
REEDSBURG      CLOUDY    64  62  93 CALM      29.86F
BARABOO/DELLS  CLOUDY    66  59  79 CALM      29.86F
LONE ROCK      NOT AVBL
MINERAL POINT  CLOUDY    72  55  56 NE3       29.88F
MADISON        CLOUDY    65  58  78 CALM      29.86F
MIDDLETON      CLOUDY    65  58  77 CALM      29.88F
WATERTOWN      CLOUDY    66  63  91 CALM      29.88R
MONROE         PTCLDY    73  54  49 CALM      29.89S
JANESVILLE     CLOUDY    70  61  73 SE3       29.87
$$

WIZ051-052-058>065-066-070>072-270500-
SOUTHEAST WISCONSIN

CITY           SKY/WX    TMP DP  RH WIND       PRES   REMARKS
MILWAUKEE      CLOUDY    72  61  68 CALM      29.88F
WAUKESHA       CLOUDY    64  57  77 CALM      29.90S
MILWAUKEE/TIMM CLOUDY    68  55  64 CALM      29.89R
RACINE         CLOUDY    69  60  73 CALM      29.90F
BURLINGTON     CLOUDY    64  60  84 CALM      29.89S
KENOSHA        CLOUDY    67  63  87 E3        29.88F
FOND DU LAC    CLOUDY    64  59  83 CALM      29.87F
SHEBOYGAN      CLOUDY    61  58  90 CALM      29.88F
WEST BEND      CLOUDY    64  61  88 CALM      29.88F
JUNEAU         CLOUDY    69  57  65 CALM      29.89S
$$

LSZ147-162-270500-
LAKE SUPERIOR

STATION/POSITION TIME  TEMP    WIND        PRES    WAVE
                       AIR SEA DIR/SP/G            HT/PER
                 (UTC) (F)     (DEG/KT/KT) (MB)    (FT/S)
W MID LAKE BUOY  0250   40 38  300/  2/  4 1011.3R   1/ 5
DEVILS ISLAND    0300   46      80/  3/  3 1011.0R
SAXON HARBOR     0340   49     190/  1/  2 1009.8F
$$

LMZ867-665-643>646-270500-
LAKE MICHIGAN

STATION/POSITION TIME  TEMP    WIND        PRES    WAVE
                       AIR SEA DIR/SP/G            HT/PER
                 (UTC) (F)     (DEG/KT/KT) (MB)    (FT/S)
CHAMBERS ISLAND  0300   60     130/  3/  6 1011.9S
N MID LAKE BUOY  0250   48 45  190/  4/  6 1011.8R   2/ 5
NORTHPORT PIER   0300   60     190/  4/  6 1011.9R
SISTER BAY       0305   60     150/  7/  9   N/A
ALGOMA LAKESHORE 0317             CALM       N/A
KEWAUNEE LAKESHO 0300                      1011.4R
SHEBOYGAN LAKESH 0300   59     200/  7/  8 1012.3R
PORT WASHINGTON  0300   60      CALM  /  1 1012.5S
S MID LAKE BUOY  0250   57 50  150/  8/  8 1012.5R   0
KENOSHA   LAKESH 0300   66     170/  8/  8 1011.9S
$$

TC  - TEMPERATURE IN CELSIUS
VSB - VISIBILITY IN STATUTE MILES
WCI - WIND CHILL INDEX
HX  - HEAT INDEX





USA.gov is the U.S. government's official web portal to all federal, state and local government web resources and services.